[Iaude] MPEC X44: 2023 XH [a=1.03,e=0.19,i=4.3,H=26.6]

mpec at marsden.cfa.harvard.edu mpec at marsden.cfa.harvard.edu
Mon Dec 4 17:33:34 EST 2023


M.P.E.C. 2023-X44                              Issued 2023 December 4, 22:31 UT

     The Minor Planet Electronic Circulars contain information on unusual
         minor planets, routine data on comets and natural satellites,
         and occasional editorial announcements.  They are published
    on behalf of Division F of the International Astronomical Union by the
          Minor Planet Center, Smithsonian Astrophysical Observatory,
                          Cambridge, MA 02138, U.S.A.
			  
             Prepared using the Tamkin Foundation Computer Network

                              MPC at CFA.HARVARD.EDU
            URL https://www.minorplanetcenter.net/    ISSN 1523-6714

                                    2023 XH                                     


Observations:
     K23X00H 1C2023 12 03.46228 06 01 47.40 +33 21 48.4          18.8 GVEX044G96
     K23X00H 1C2023 12 03.46751 06 01 49.59 +33 23 26.7          18.8 GVEX044G96
     K23X00H* C2023 12 03.48355706 02 19.296+33 31 08.15         19.07oVEX044T05
     K23X00H  C2023 12 03.48672506 02 20.393+33 32 11.51         19.21oVEX044T05
     K23X00H  C2023 12 03.49241206 02 22.548+33 34 05.05         19.13oVEX044T05
     K23X00H  C2023 12 03.52371306 02 34.327+33 44 29.83         18.95oVEX044T05
     K23X00H KB2023 12 03.82922 06 06 24.81 +35 27 01.6          19.0 RZEX044106
     K23X00H KB2023 12 03.83308 06 06 27.23 +35 28 32.2          18.4 RZEX044106
     K23X00H KB2023 12 03.83679 06 06 29.55 +35 29 58.0          18.2 RZEX044106
     K23X00H KB2023 12 03.84034 06 06 31.76 +35 31 21.4          18.5 RZEX044106
     K23X00H KC2023 12 04.29993806 12 16.54 +38 38 42.2          18.8 GXEX044858
     K23X00H KC2023 12 04.30695106 12 21.16 +38 41 47.5          18.7 GXEX044858
     K23X00H KC2023 12 04.31364406 12 25.54 +38 44 44.2          18.6 GXEX044858
     K23X00H mC2023 12 04.33087706 12 40.082+38 52 39.47         18.67GVEX044I52
     K23X00H mC2023 12 04.33109506 12 40.194+38 52 45.05         18.43GVEX044I52
     K23X00H mC2023 12 04.33131106 12 40.331+38 52 51.02               VEX044I52
     K23X00H mC2023 12 04.33153606 12 40.471+38 52 56.86               VEX044I52
     K23X00H KC2023 12 04.80162206 21 03.08 +42 29 11.5          18.5 GXEX044L18
     K23X00H KC2023 12 04.80767106 21 09.55 +42 32 24.3          18.4 GXEX044L18
     K23X00H KC2023 12 04.81369106 21 16.10 +42 35 36.5          18.5 GXEX044L18
     K23X00H KB2023 12 04.83416 06 21 40.27 +42 46 53.2          18.7 GXEX044M45
     K23X00H KB2023 12 04.83583 06 21 42.05 +42 47 47.0          18.5 GXEX044M45
     K23X00H KB2023 12 04.83750 06 21 43.83 +42 48 40.7                XEX044M45
     K23X00H KC2023 12 04.85880 06 22 12.65 +43 00 29.2          19.0 VZEX044M63
     K23X00H KC2023 12 04.86296 06 22 17.10 +43 02 45.0          19.2 VZEX044M63
     K23X00H KC2023 12 04.86700 06 22 21.42 +43 04 56.5          19.1 VZEX044M63

Observer details:
106 Crni Vrh.  Observer H. Mikuz.  0.60-m f/3.3 reflector + CMO.
858 Tebbutt Observatory, Edgewood.  Observer F. B. Zoltowski.  0.51-m f/8.1
    Schmidt-Cassegrain + CCD.
G96 Mt. Lemmon Survey.  Observer H. Groeller.  Measurers B. Gray, D. Rankin,
    F. C. Shelly.  1.5-m reflector + 10K CCD.
I52 Steward Observatory, Mt. Lemmon Station.  Observer G. J. Leonard.
    Measurers E. C. Beshore, D. Fay, J. B. Fazekas, D. C. Fuls, A. R. Gibbs,
    A. D. Grauer, H. Groeller, J. K. Hogan, R. A. Kowalski, S. M. Larson, G.
    J. Leonard, D. Rankin, R. L. Seaman, F. C. Shelly, K. W. Wierzchos.  1.0-m
    prime focus + CCD.
L18 QOS Observatory, Zalistsi.  Observers S. V. Rischenko, O. V. Kravchenko.
    Measurer A. M. Kozhukhov.  0.50-m f/3.8 reflector + CCD.
M45 Starhopper Observatory, Sfantu Gheorghe.  Observer F. Ursache.  0.41-m
    f/7.5 reflector + CMO.
M63 RPF Observatory, Gagliano del Capo.  Observer D. Licchelli.  0.30-m f/5.3
    reflector + CCD.
T05 ATLAS-HKO, Haleakala.  Observers L. Denneau, R. Siverd, J. Tonry, H.
    Weiland.  Measurers L. Denneau, N. Erasmus, A. Fitzsimmons, A. Lawrence,
    J. Robinson, R. Siverd, J. Tonry, H. Weiland.  0.5-m Reflector + CCD.

Orbital elements:
2023 XH                                                  Earth MOID = 0.0092 AU
Epoch 2023 Sept. 13.0 TT = JDT 2460200.5                Veres                   
M 210.07042              (2000.0)            P               Q                  
n   0.94914586     Peri.   97.38149     -0.96770223     -0.24216989             
a   1.0254490      Node    68.62388     +0.19126393     -0.88628401             
e   0.1945203      Incl.    4.31376     +0.16422698     -0.39478398             
P   1.04           H   26.68          G   0.15           U   6                  
Residuals in seconds of arc
231203 G96  0.2+  0.5+    231203 106  0.0   0.2+    231204 L18  0.7-  0.3-
231203 G96  0.2-  0.5-    231204 858  0.1+  0.1+    231204 L18  0.6-  0.5-
231203 T05  0.6+  0.6-    231204 858  0.3+  0.2+    231204 M45  0.1+  0.3+
231203 T05  0.4-  0.6-    231204 858  0.1+  0.1+    231204 M45  0.0   0.4+
231203 T05  0.1+  0.6-    231204 I52  0.4+  0.2-    231204 M45  0.0   0.3+
231203 T05  0.2-  1.2+    231204 I52  0.0   0.4-    231204 M63  0.1+  0.2+
231203 106  0.2-  0.1+    231204 I52  0.1-  0.1-    231204 M63  0.1+  0.4+
231203 106  0.2-  0.6+    231204 I52  0.1-  0.2-    231204 M63  0.2+  0.2+
231203 106  0.1-  0.2-    231204 L18  0.6+  0.0

Ephemeris:
2023 XH                  a,e,i = 1.03, 0.19, 4                   q = 0.8260
Date    TT    R. A. (2000) Decl.     Delta      r    Elong.  Phase     V
2023 11 04    05 12 21.0 +08 19 33   0.1314  1.0969   140.8    34.9    23.9
...
2023 11 19    05 25 51.5 +10 51 08   0.07033 1.0511   152.0    26.2    22.2
...
2023 11 27    05 35 34.7 +16 21 07   0.04077 1.0250   158.9    20.3    20.8
...
2023 12 03    05 58 00.7 +31 00 07   0.02039 1.0050   159.3    20.3    19.2
2023 12 04    06 08 01.1 +36 35 05   0.01737 1.0016   155.9    23.7    19.0
2023 12 05    06 24 36.3 +44 16 13   0.01461 0.9982   149.7    29.9    18.8
...
2023 12 11    16 23 31.5 +37 56 33   0.01492 0.9779    61.8   117.4    22.2
...
2023 12 19    17 04 40.9 +10 19 27   0.04081 0.9509    35.1   143.5    27.0
...
2024 01 03    17 17 29.4 +00 19 53   0.09718 0.9029    32.5   144.1    28.8

M. P. C. Staff               (C) Copyright 2023 MPC           M.P.E.C. 2023-X44





More information about the Iaude mailing list